This demonstration page uses our WeatherBlox Daily Observations layout. Learn more.

Left ArrowRight Arrow

44.89941, -97.11507

Hourly Observations for October 3, 2022

Temp ( °F °C ) Dew Point ( °F °C ) Humidity (%) Winds ( mph kmh ) Pressure ( in mb ) Visibility ( mi km ) Precip ( " mm )
12:53 am 00:53 Clear 58 14.4 42 5.6 55 55 SSE 9 15 30.15 1021 10 16 0.00 0.00
1:53 am 01:53 Clear 57 13.9 43 6.1 59 59 SSE 12 19 30.14 1021 10 16 0.00 0.00
2:53 am 02:53 Clear 57 13.9 43 6.1 59 59 SSE 12 19 30.14 1021 10 16 0.00 0.00
3:53 am 03:53 Clear 57 13.9 44 6.7 62 62 SSE 12 19 30.12 1020 10 16 0.00 0.00
4:53 am 04:53 Clear 57 13.9 44 6.7 62 62 SSE 12 19 30.13 1020 10 16 0.00 0.00
5:53 am 05:53 Clear 57 13.9 45 7.2 64 64 SSE 10 17 30.13 1020 10 16 0.00 0.00
6:53 am 06:53 Clear 55 12.8 44 6.7 66 66 SSE 12 19 30.14 1021 10 16 0.00 0.00
7:53 am 07:53 Sunny 53 11.7 44 6.7 71 71 SSE 12 19 30.14 1021 10 16 0.00 0.00
8:53 am 08:53 Mostly Sunny 55 12.8 44 6.7 66 66 SSE 13 20 30.14 1021 10 16 0.00 0.00
9:53 am 09:53 Sunny 60 15.6 45 7.2 57 57 S 14 22 30.14 1021 10 16 0.00 0.00
10:53 am 10:53 Sunny 64 17.8 45 7.2 50 50 SSE 14 22 30.14 1021 10 16 0.00 0.00
11:53 am 11:53 Sunny 67 19.4 44 6.7 44 44 S 14 22 30.13 1020 10 16 0.00 0.00
12:53 pm 12:53 Sunny 69 20.6 43 6.1 39 39 S 13 20 30.11 1020 10 16 0.00 0.00
1:53 pm 13:53 Sunny 73 22.8 43 6.1 34 34 S 14 22 30.10 1019 10 16 0.00 0.00
2:53 pm 14:53 Sunny 75 23.9 43 6.1 32 32 S 10 17 30.09 1019 10 16 0.00 0.00
3:53 pm 15:53 Mostly Sunny 73 22.8 45 7.2 37 37 SSW 7 11 30.09 1019 10 16 0.00 0.00
4:53 pm 16:53 Sunny 71 21.7 48 8.9 44 44 SW 5 7 30.09 1019 10 16 0.00 0.00
5:53 pm 17:53 Mostly Sunny 69 20.6 49 9.4 49 49 Calm 30.09 1019 10 16 0.00 0.00
6:53 pm 18:53 Cloudy 64 17.8 52 11.1 65 65 Calm 30.10 1019 10 16 0.00 0.00
7:53 pm 19:53 Cloudy 64 17.8 50 10 60 60 W 3 6 30.11 1020 10 16 0.00 0.00
8:53 pm 20:53 Cloudy with Light Rain 61 16.1 54 12.2 78 78 WNW 9 15 30.14 1021 10 16 0.01 0.25
9:53 pm 21:53 Cloudy 59 15 55 12.8 87 87 N 3 6 30.11 1020 10 16 0.01 0.25
10:53 pm 22:53 Cloudy with Light Rain 58 14.4 56 13.3 93 93 Calm 30.12 1020 10 16 0.01 0.13
11:53 pm 23:53 Cloudy 58 14.4 55 12.8 90 90 SSE 7 11 30.13 1020 10 16 0.01 0.13

Powered by AerisWeather